FW0099 Weather Reports


Display with metric or nautical units.
time (UTC)temp
F
wind
direction
speed
MPH
gust
MPH
rain 1hr
in
rain 24hr
in
rain mn
in
humidity
%
barometer
mb
20260509180217 62 0.0 0.0 0.00 0.00 0.00 50 1014.2
20260509175237 62 0.0 0.0 0.00 0.00 0.00 49 1014.1
20260509174217 63 0.0 0.0 0.00 0.00 0.00 48 1014.2
20260509173217 63 0.0 0.0 0.00 0.00 0.00 47 1014.3
20260509172217 63 0.0 0.0 0.00 0.00 0.00 47 1014.2
20260509171216 64 332 2.0 4.0 0.00 0.00 0.00 47 1014.2
20260509170216 64 0.0 0.0 0.00 0.00 0.00 46 1014.2
20260509165217 64 51 0.0 3.0 0.00 0.00 0.00 45 1014.2
20260509164216 65 0.0 0.0 0.00 0.00 0.00 47 1014.3
20260509163256 65 0.0 0.0 0.00 0.00 0.00 45 1014.3
20260509162216 65 0.0 0.0 0.00 0.00 0.00 48 1014.3
20260509161237 65 0.0 0.0 0.00 0.00 0.00 45 1014.4
20260509160216 66 0.0 0.0 0.00 0.00 0.00 45 1014.4
20260509155217 66 0.0 0.0 0.00 0.00 0.00 41 1014.6
20260509154216 67 0.0 0.0 0.00 0.00 0.00 42 1014.6
20260509153216 67 62 0.0 2.0 0.00 0.00 0.00 45 1014.5
20260509152217 68 0.0 0.0 0.00 0.00 0.00 41 1014.6
20260509151216 68 0.0 0.0 0.00 0.00 0.00 41 1014.6
20260509150216 67 53 1.0 2.0 0.00 0.00 0.00 40 1014.7
20260509145216 67 0.0 0.0 0.00 0.00 0.00 37 1014.7
20260509144216 67 0.0 0.0 0.00 0.00 0.00 38 1014.7
20260509143216 68 304 2.0 3.0 0.00 0.00 0.00 36 1014.9
20260509142236 68 0.0 0.0 0.00 0.00 0.00 35 1015.0
20260509141216 69 55 0.0 3.0 0.00 0.00 0.00 36 1015.0
20260509140236 70 0.0 1.0 0.00 0.00 0.00 35 1015.0
20260509135236 70 0.0 0.0 0.00 0.00 0.00 38 1015.2
20260509134237 70 333 1.0 7.0 0.00 0.00 0.00 38 1015.3
20260509133216 70 327 5.0 9.0 0.00 0.00 0.00 35 1015.5
20260509132216 70 0.0 0.0 0.00 0.00 0.00 37 1015.7
20260509131216 69 0.0 0.0 0.00 0.00 0.00 41 1015.8
20260509130236 69 54 0.0 2.0 0.00 0.00 0.00 35 1015.9
20260509125217 69 0.0 0.0 0.00 0.00 0.00 37 1015.9
20260509124216 71 315 0.0 4.0 0.00 0.00 0.00 33 1016.0
20260509123216 72 0.0 0.0 0.00 0.00 0.00 35 1016.1
20260509122236 71 334 2.0 4.0 0.00 0.00 0.00 37 1016.2
20260509121216 72 340 0.0 6.0 0.00 0.00 0.00 32 1016.4
20260509120216 73 347 0.0 2.0 0.00 0.00 0.00 34 1016.4
20260509115216 72 327 2.0 4.0 0.00 0.00 0.00 33 1016.4
20260509114216 71 321 4.0 7.0 0.00 0.00 0.00 33 1016.6
20260509113216 70 63 0.0 2.0 0.00 0.00 0.00 33 1016.7
20260509112216 74 63 0.0 2.0 0.00 0.00 0.00 33 1016.8
20260509111216 75 76 0.0 3.0 0.00 0.00 0.00 28 1016.8
20260509110216 74 139 2.0 3.0 0.00 0.00 0.00 29 1016.9
20260509105216 74 75 0.0 2.0 0.00 0.00 0.00 34 1017.1
20260509104216 74 64 1.0 4.0 0.00 0.00 0.00 31 1017.2
20260509103216 73 49 0.0 4.0 0.00 0.00 0.00 37 1017.2
20260509102216 73 337 2.0 5.0 0.00 0.00 0.00 36 1017.3
20260509101216 72 24 0.0 3.0 0.00 0.00 0.00 37 1017.2
20260509100216 73 72 1.0 4.0 0.00 0.00 0.00 41 1017.4
20260509095216 72 57 0.0 2.0 0.00 0.00 0.00 38 1017.4
20260509094236 72 53 0.0 3.0 0.00 0.00 0.00 39 1017.4
20260509093236 72 60 0.0 3.0 0.00 0.00 0.00 41 1017.4
20260509092216 72 79 0.0 3.0 0.00 0.00 0.00 45 1017.5
20260509091216 72 76 0.0 2.0 0.00 0.00 0.00 45 1017.5
20260509090216 70 86 1.0 3.0 0.00 0.00 0.00 43 1017.6
20260509085216 69 84 0.0 2.0 0.00 0.00 0.00 47 1017.5
20260509084216 69 87 0.0 3.0 0.00 0.00 0.00 46 1017.7
20260509083216 68 0.0 0.0 0.00 0.00 0.00 52 1017.7
20260509082216 67 88 1.0 3.0 0.00 0.00 0.00 52 1017.7
20260509081216 65 60 0.0 2.0 0.00 0.00 0.00 55 1017.8
20260509080215 63 65 1.0 3.0 0.00 0.00 0.00 60 1017.8
20260509075216 61 90 0.0 1.0 0.00 0.00 0.00 62 1017.6
20260509074216 59 58 1.0 7.0 0.00 0.00 0.00 66 1017.6
20260509073216 57 0.0 0.0 0.00 0.00 0.00 75 1017.6
20260509072216 55 0.0 2.0 0.00 0.00 0.00 83 1017.7
20260509071215 53 63 2.0 4.0 0.00 0.00 0.00 88 1017.8
20260509070216 53 0.0 0.0 0.00 0.00 0.00 91 1017.8
20260509065216 50 0.0 0.0 0.00 0.00 0.00 91 1017.8
20260509064215 49 0.0 0.0 0.00 0.00 0.00 91 1017.7
20260509063215 48 0.0 0.0 0.00 0.00 0.00 90 1017.7
20260509062236 47 0.0 0.0 0.00 0.00 0.00 90 1017.6
20260509061217 46 0.0 0.0 0.00 0.00 0.00 90 1017.5
20260509060215 45 0.0 0.0 0.00 0.00 0.00 90 1017.7
20260509055215 44 0.0 0.0 0.00 0.00 0.00 90 1017.7
20260509054236 43 0.0 0.0 0.00 0.00 0.00 90 1017.6
20260509053235 41 0.0 0.0 0.00 0.00 0.00 90 1017.5
20260509052215 41 0.0 0.0 0.00 0.00 0.00 89 1017.4
20260509051215 40 0.0 0.0 0.00 0.00 0.00 89 1017.4
20260509050235 40 0.0 0.0 0.00 0.00 0.00 89 1017.4
20260509045215 40 0.0 0.0 0.00 0.00 0.00 89 1017.3
20260509044215 39 0.0 0.0 0.00 0.00 0.00 89 1017.2
20260509043216 39 0.0 0.0 0.00 0.00 0.00 89 1017.1
20260509042215 39 0.0 0.0 0.00 0.00 0.00 89 1017.1
20260509041216 39 0.0 0.0 0.00 0.00 0.00 89 1017.1
20260509040215 39 0.0 0.0 0.00 0.00 0.00 89 1017.2
20260509035235 40 0.0 0.0 0.00 0.00 0.00 89 1017.2
20260509034215 40 0.0 0.0 0.00 0.00 0.00 89 1017.2
20260509033215 40 0.0 0.0 0.00 0.00 0.00 89 1017.2
20260509032215 40 0.0 0.0 0.00 0.00 0.00 89 1017.2
20260509031215 40 0.0 0.0 0.00 0.00 0.00 89 1017.3
20260509030215 40 0.0 0.0 0.00 0.00 0.00 89 1017.4
20260509025215 40 0.0 0.0 0.00 0.00 0.00 89 1017.5
20260509024255 40 0.0 0.0 0.00 0.00 0.00 89 1017.5
20260509023216 40 0.0 0.0 0.00 0.00 0.00 89 1017.6
20260509022215 40 0.0 0.0 0.00 0.00 0.00 89 1017.5
20260509021215 41 0.0 0.0 0.00 0.00 0.00 88 1017.5
20260509020215 41 0.0 0.0 0.00 0.00 0.00 88 1017.5
20260509015215 41 0.0 0.0 0.00 0.00 0.00 88 1017.6
20260509014255 41 0.0 0.0 0.00 0.00 0.00 88 1017.6
20260509013235 41 0.0 0.0 0.00 0.00 0.00 88 1017.6
20260509012215 41 0.0 0.0 0.00 0.00 0.00 88 1017.7
20260509011215 42 0.0 0.0 0.00 0.00 0.00 88 1017.7
20260509010215 42 0.0 0.0 0.00 0.00 0.00 88 1017.7
20260509005215 42 0.0 0.0 0.00 0.00 0.00 88 1017.7
20260509004215 42 0.0 0.0 0.00 0.00 0.00 88 1017.7
20260509003215 43 0.0 0.0 0.00 0.00 0.00 88 1017.7
20260509002215 43 0.0 0.0 0.00 0.00 0.00 88 1017.7
20260509001215 43 0.0 0.0 0.00 0.00 0.00 87 1017.7
20260509000215 43 0.0 0.0 0.00 0.00 0.00 87 1017.6
20260508235235 43 0.0 0.0 0.00 0.00 0.00 87 1017.7
20260508234215 44 0.0 0.0 0.00 0.00 0.00 87 1017.7
20260508233215 44 0.0 0.0 0.00 0.00 0.00 87 1017.7
20260508232214 44 0.0 0.0 0.00 0.00 0.00 87 1017.7
20260508231218 44 0.0 0.0 0.00 0.00 0.00 86 1017.7
20260508230237 44 0.0 0.0 0.00 0.00 0.00 86 1017.6
20260508225217 44 0.0 0.0 0.00 0.00 0.00 86 1017.6
20260508224217 45 0.0 0.0 0.00 0.00 0.00 86 1017.6
20260508223217 45 0.0 0.0 0.00 0.00 0.00 86 1017.6
20260508222238 45 0.0 0.0 0.00 0.00 0.00 85 1017.5
20260508221217 45 0.0 0.0 0.00 0.00 0.00 85 1017.5
20260508220217 46 0.0 0.0 0.00 0.00 0.00 84 1017.5
20260508215215 46 0.0 0.0 0.00 0.00 0.00 84 1017.4
20260508214215 46 0.0 0.0 0.00 0.00 0.00 83 1017.4
20260508213215 46 0.0 0.0 0.00 0.00 0.00 83 1017.5
20260508212215 47 0.0 0.0 0.00 0.00 0.00 82 1017.4
20260508211215 47 0.0 0.0 0.00 0.00 0.00 81 1017.4
20260508210215 47 0.0 0.0 0.00 0.00 0.00 80 1017.4
20260508205215 48 0.0 0.0 0.00 0.00 0.00 79 1017.4
20260508204235 48 0.0 0.0 0.00 0.00 0.00 78 1017.5
20260508203235 49 0.0 0.0 0.00 0.00 0.00 76 1017.4
20260508202257 49 0.0 0.0 0.00 0.00 0.00 75 1017.4
20260508201216 50 0.0 0.0 0.00 0.00 0.00 73 1017.3
20260508200217 51 0.0 0.0 0.00 0.00 0.00 70 1017.3
20260508195215 52 0.0 0.0 0.00 0.00 0.00 69 1017.2
20260508194215 52 0.0 0.0 0.00 0.00 0.00 66 1017.1
20260508193237 53 0.0 0.0 0.00 0.00 0.00 62 1017.0
20260508192217 55 0.0 0.0 0.00 0.00 0.00 60 1016.8
20260508191215 56 0.0 0.0 0.00 0.00 0.00 59 1016.7
20260508190217 57 0.0 0.0 0.00 0.00 0.00 57 1016.6
20260508185217 57 0.0 0.0 0.00 0.00 0.00 57 1016.5
20260508184217 58 0.0 0.0 0.00 0.00 0.00 55 1016.5
20260508183217 58 0.0 0.0 0.00 0.00 0.00 53 1016.4
20260508182217 59 0.0 0.0 0.00 0.00 0.00 53 1016.3
20260508181237 59 0.0 0.0 0.00 0.00 0.00 52 1016.2